• In Belgium
  • List of Countries
  • For 7 days
  • Water Temperature
  • Satellite Maps
  • Weather Map
  • Weather Widgets
  • user-avatar
    Login

    Hourly Weather Batina

    Today, 25 November, Saturday

    Time Temperature Precipitation Wind Pressure Humidity
    00:00 +9°C° 0 mm 1 mps 673 mmHg 33%
    01:00 +9°C° 0 mm 1 mps 673 mmHg 34%
    02:00 +9°C° 0 mm 1 mps 673 mmHg 34%
    03:00 +7°C° 0 mm 2 mps 673 mmHg 35%
    04:00 +7°C° 0 mm 2 mps 673 mmHg 35%
    05:00 +7°C° 0 mm 2 mps 673 mmHg 35%
    06:00 +7°C° 0 mm 2 mps 673 mmHg 35%
    07:00 +9°C° 0 mm 2 mps 673 mmHg 32%
    08:00 +12°C° 0 mm 2 mps 674 mmHg 28%
    09:00 +14°C° 0 mm 2 mps 674 mmHg 24%
    10:00 +14°C° 0 mm 3 mps 675 mmHg 23%
    11:00 +16°C° 0 mm 3 mps 675 mmHg 22%
    12:00 +17°C° 0 mm 3 mps 675 mmHg 20%
    13:00 +17°C° 0 mm 3 mps 674 mmHg 20%
    14:00 +17°C° 0 mm 3 mps 674 mmHg 21%
    15:00 +17°C° 0 mm 3 mps 674 mmHg 21%
    16:00 +15°C° 0 mm 2 mps 673 mmHg 25%
    17:00 +13°C° 0 mm 2 mps 673 mmHg 28%
    18:00 +12°C° 0 mm 1 mps 673 mmHg 32%
    19:00 +11°C° 0 mm 1 mps 673 mmHg 32%
    20:00 +11°C° 0 mm 1 mps 673 mmHg 32%
    21:00 +10°C° 0 mm 1 mps 673 mmHg 32%
    22:00 +10°C° 0 mm 1 mps 673 mmHg 32%
    23:00 +10°C° 0 mm 1 mps 673 mmHg 32%

    Tomorrow, 26 November, Sunday

    Time Temperature Precipitation Wind Pressure Humidity
    00:00 +9°C° 0 mm 1 mps 673 mmHg 32%
    01:00 +9°C° 0 mm 1 mps 672 mmHg 32%
    02:00 +9°C° 0 mm 1 mps 672 mmHg 32%
    03:00 +9°C° 0 mm 1 mps 672 mmHg 32%
    04:00 +8°C° 0 mm 1 mps 672 mmHg 33%
    05:00 +8°C° 0 mm 1 mps 672 mmHg 33%
    06:00 +8°C° 0 mm 1 mps 672 mmHg 34%
    07:00 +10°C° 0 mm 1 mps 673 mmHg 30%
    08:00 +12°C° 0 mm 1 mps 673 mmHg 26%
    09:00 +14°C° 0 mm 1 mps 674 mmHg 23%
    10:00 +14°C° 0 mm 1 mps 674 mmHg 24%
    11:00 +14°C° 0 mm 1 mps 674 mmHg 26%
    12:00 +15°C° 0 mm 2 mps 674 mmHg 27%
    13:00 +15°C° 0 mm 2 mps 674 mmHg 30%
    14:00 +14°C° 0 mm 3 mps 674 mmHg 32%
    15:00 +14°C° 0 mm 3 mps 674 mmHg 35%
    16:00 +12°C° 0 mm 3 mps 674 mmHg 46%
    17:00 +11°C° 0 mm 4 mps 674 mmHg 56%
    18:00 +10°C° 0 mm 4 mps 674 mmHg 67%
    19:00 +8°C° 0.1 mm 4 mps 675 mmHg 70%
    20:00 +8°C° 0.1 mm 4 mps 675 mmHg 73%
    21:00 +7°C° 0.1 mm 4 mps 675 mmHg 77%
    22:00 +7°C° 0 mm 4 mps 675 mmHg 77%
    23:00 +7°C° 0 mm 3 mps 675 mmHg 77%

    Day after tomorrow, 27 November, Monday

    Time Temperature Precipitation Wind Pressure Humidity
    00:00 +7°C° 0 mm 3 mps 675 mmHg 77%
    01:00 +5°C° 0 mm 3 mps 675 mmHg 78%
    02:00 +5°C° 0 mm 3 mps 675 mmHg 79%
    03:00 +4°C° 0 mm 3 mps 675 mmHg 81%
    04:00 +4°C° 0 mm 3 mps 675 mmHg 81%
    05:00 +3°C° 0 mm 3 mps 675 mmHg 81%
    06:00 +4°C° 0 mm 2 mps 675 mmHg 82%
    07:00 +4°C° 0 mm 3 mps 676 mmHg 75%
    08:00 +5°C° 0 mm 3 mps 676 mmHg 68%
    09:00 +7°C° 0 mm 3 mps 677 mmHg 61%
    10:00 +7°C° 0 mm 3 mps 677 mmHg 59%
    11:00 +8°C° 0 mm 3 mps 676 mmHg 56%
    12:00 +8°C° 0 mm 3 mps 676 mmHg 53%
    13:00 +8°C° 0 mm 3 mps 676 mmHg 53%
    14:00 +8°C° 0 mm 3 mps 676 mmHg 53%
    15:00 +8°C° 0 mm 3 mps 675 mmHg 53%
    16:00 +8°C° 0 mm 2 mps 675 mmHg 57%
    17:00 +7°C° 0 mm 2 mps 675 mmHg 62%
    18:00 +7°C° 0 mm 1 mps 675 mmHg 66%
    19:00 +6°C° 0 mm 1 mps 675 mmHg 68%
    20:00 +6°C° 0 mm 1 mps 675 mmHg 70%
    21:00 +5°C° 0 mm 1 mps 675 mmHg 72%
    22:00 +5°C° 0 mm 1 mps 675 mmHg 73%
    23:00 +5°C° 0 mm 1 mps 674 mmHg 73%

    28 November, Tuesday

    Time Temperature Precipitation Wind Pressure Humidity
    00:00 +5°C° 0 mm 1 mps 674 mmHg 73%
    01:00 +4°C° 0 mm 1 mps 673 mmHg 74%
    02:00 +4°C° 0 mm 1 mps 673 mmHg 75%
    03:00 +4°C° 0 mm 1 mps 673 mmHg 75%
    04:00 +3°C° 0 mm 2 mps 673 mmHg 75%
    05:00 +3°C° 0 mm 2 mps 672 mmHg 76%
    06:00 +3°C° 0 mm 2 mps 672 mmHg 76%
    07:00 +4°C° 0 mm 2 mps 673 mmHg 68%
    08:00 +5°C° 0 mm 3 mps 673 mmHg 60%
    09:00 +8°C° 0 mm 3 mps 674 mmHg 52%
    10:00 +8°C° 0 mm 4 mps 673 mmHg 49%
    11:00 +10°C° 0 mm 4 mps 673 mmHg 45%
    12:00 +10°C° 0 mm 5 mps 672 mmHg 42%
    13:00 +10°C° 0 mm 5 mps 672 mmHg 44%
    14:00 +11°C° 0 mm 4 mps 671 mmHg 45%
    15:00 +11°C° 0 mm 4 mps 671 mmHg 47%
    16:00 +10°C° 0 mm 4 mps 670 mmHg 53%
    17:00 +8°C° 0 mm 3 mps 670 mmHg 58%
    18:00 +7°C° 0 mm 3 mps 670 mmHg 64%
    19:00 +7°C° 0 mm 3 mps 670 mmHg 66%
    20:00 +7°C° 0 mm 3 mps 670 mmHg 68%
    21:00 +7°C° 0 mm 3 mps 670 mmHg 70%
    22:00 +7°C° 0 mm 3 mps 670 mmHg 71%
    23:00 +7°C° 0 mm 3 mps 669 mmHg 71%

    29 November, Wednesday

    Time Temperature Precipitation Wind Pressure Humidity
    00:00 +5°C° 0 mm 3 mps 669 mmHg 72%
    01:00 +5°C° 0 mm 3 mps 669 mmHg 72%
    02:00 +5°C° 0 mm 3 mps 668 mmHg 72%
    03:00 +5°C° 0 mm 3 mps 668 mmHg 72%
    04:00 +5°C° 0 mm 3 mps 668 mmHg 72%
    05:00 +5°C° 0 mm 3 mps 668 mmHg 73%
    06:00 +5°C° 0 mm 3 mps 668 mmHg 73%
    07:00 +8°C° 0 mm 3 mps 668 mmHg 68%
    08:00 +8°C° 0 mm 4 mps 668 mmHg 63%
    09:00 +11°C° 0 mm 4 mps 669 mmHg 57%
    10:00 +12°C° 0 mm 5 mps 669 mmHg 54%
    11:00 +13°C° 0 mm 6 mps 668 mmHg 51%
    12:00 +15°C° 0 mm 7 mps 668 mmHg 48%
    13:00 +14°C° 0 mm 7 mps 668 mmHg 49%
    14:00 +13°C° 0 mm 6 mps 667 mmHg 51%
    15:00 +13°C° 0 mm 6 mps 666 mmHg 52%
    16:00 +12°C° 0 mm 5 mps 666 mmHg 56%
    17:00 +11°C° 0 mm 4 mps 666 mmHg 60%
    18:00 +8°C° 0 mm 4 mps 666 mmHg 64%
    19:00 +8°C° 0 mm 4 mps 666 mmHg 62%
    20:00 +8°C° 0 mm 4 mps 666 mmHg 60%
    21:00 +8°C° 0 mm 4 mps 666 mmHg 58%
    22:00 +8°C° 0 mm 4 mps 666 mmHg 58%
    23:00 +8°C° 0 mm 4 mps 666 mmHg 57%

    30 November, Thursday

    Time Temperature Precipitation Wind Pressure Humidity
    00:00 +8°C° 0 mm 4 mps 665 mmHg 57%
    01:00 +7°C° 0 mm 4 mps 665 mmHg 57%
    02:00 +8°C° 0 mm 3 mps 665 mmHg 57%
    03:00 +8°C° 0 mm 3 mps 665 mmHg 57%
    04:00 +8°C° 0 mm 3 mps 664 mmHg 58%
    05:00 +8°C° 0 mm 3 mps 664 mmHg 58%
    06:00 +8°C° 0 mm 3 mps 664 mmHg 58%
    07:00 +8°C° 0 mm 4 mps 665 mmHg 57%
    08:00 +9°C° 0 mm 5 mps 665 mmHg 56%
    09:00 +12°C° 0 mm 5 mps 666 mmHg 54%
    10:00 +13°C° 0 mm 6 mps 665 mmHg 53%
    11:00 +14°C° 0 mm 7 mps 665 mmHg 52%
    12:00 +13°C° 0 mm 8 mps 665 mmHg 50%
    13:00 +14°C° 0 mm 7 mps 665 mmHg 51%
    14:00 +14°C° 0 mm 7 mps 665 mmHg 52%
    15:00 +13°C° 0 mm 6 mps 665 mmHg 53%
    16:00 +12°C° 0.1 mm 5 mps 665 mmHg 58%
    17:00 +11°C° 0.1 mm 4 mps 665 mmHg 63%
    18:00 +10°C° 0.1 mm 3 mps 665 mmHg 68%
    19:00 +10°C° 0.3 mm 3 mps 666 mmHg 73%
    20:00 +10°C° 0.3 mm 2 mps 666 mmHg 77%
    21:00 +10°C° 0.3 mm 2 mps 666 mmHg 82%
    22:00 +10°C° 0.6 mm 2 mps 666 mmHg 84%
    23:00 +9°C° 0.6 mm 2 mps 666 mmHg 86%
    Show more